Weather History for KAAO - March, 2014

Change the Weather History Date:

Tuesday, March 11, 2014

  Actual Average (KICT) Record (KICT)
Temperature  
Mean Temperature 56 °F 45 °F  
Max Temperature 73 °F 56 °F 89 °F (1989)
Min Temperature 36 °F 34 °F -3 °F (1948)
Degree Days  
Heating Degree Days 9 20  
Month to date heating degree days 238  
Since 1 July heating degree days 3878  
Cooling Degree Days 0 0  
Month to date cooling degree days 0  
Year to date cooling degree days 0  
Growing Degree Days 6 (Base 50)    
Moisture  
Dew Point 38 °F    
Average Humidity 55    
Maximum Humidity 82    
Minimum Humidity 34    
Precipitation  
Precipitation 0.00 in 0.08 in 2.05 in (1899)
Month to date precipitation 0.82  
Year to date precipitation 2.83  
Snow  
Snow 0.00 in 0.10 in 6.00 in (1899)
Month to date snowfall 0.9  
Since 1 July snowfall 13.3  
Snow Depth -    
Sea Level Pressure  
Sea Level Pressure 29.62 in    
Wind  
Wind Speed 20 mph (West)    
Max Wind Speed 38 mph    
Max Gust Speed 52 mph    
Visibility 10 miles    
Events      
T = Trace of Precipitation, MM = Missing Value Source: NWS Daily Summary

Daily Weather History Graph

Daily Weather History Graph

Search for Another Location

Airport or City:

Trip Planner

Search our weather history database for the weather conditions in past years. The results will help you decide how hot, cold, wet, or windy it might be!

Date:

Astronomy

Mar. 11, 2014 Rise Set
Actual Time 7:45 AM CDT 7:32 PM CDT
Civil Twilight 7:19 AM CDT 7:58 PM CDT
Nautical Twilight 6:49 AM CDT 8:28 PM CDT
Astronomical Twilight 6:18 AM CDT 8:59 PM CDT
Moon 3:13 PM CDT (3/11) 4:36 AM CDT (3/11)
Length of Visible Light 12h 38m
Length of Day
11h 46m
Waxing Gibbous, 78% of the Moon is Illuminated
Mar 11
Waxing Gibbous
Mar 16
Full
Mar 23
Last Quarter
Mar 30
New
Apr 7
First Quarter

Hourly Weather History & Observations

Time (CDT) Temp. Windchill Dew Point Humidity Pressure Visibility Wind Dir Wind Speed Gust Speed Precip Events Conditions
12:54 AM 52.0 °F - 30.9 °F 45% 29.66 in 10.0 mi South 10.4 mph - N/A   Clear
1:54 AM 55.9 °F - 33.1 °F 42% 29.62 in 10.0 mi South 15.0 mph - N/A   Clear
2:54 AM 54.0 °F - 34.0 °F 47% 29.60 in 10.0 mi South 12.7 mph 21.9 mph N/A   Clear
3:54 AM 52.0 °F - 35.1 °F 53% 29.55 in 10.0 mi South 13.8 mph - N/A   Clear
4:54 AM 51.1 °F - 39.0 °F 63% 29.52 in 10.0 mi South 11.5 mph - N/A   Clear
5:54 AM 53.1 °F - 43.0 °F 69% 29.50 in 10.0 mi South 16.1 mph - N/A   Clear
6:54 AM 53.1 °F - 45.0 °F 74% 29.49 in 10.0 mi South 17.3 mph - N/A   Clear
7:54 AM 52.0 °F - 46.0 °F 80% 29.48 in 10.0 mi South 12.7 mph - N/A   Clear
8:54 AM 55.9 °F - 48.0 °F 75% 29.48 in 10.0 mi South 17.3 mph - N/A   Clear
9:54 AM 61.0 °F - 48.9 °F 64% 29.45 in 10.0 mi South 19.6 mph 27.6 mph N/A   Clear
10:54 AM 64.9 °F - 48.9 °F 56% 29.44 in 10.0 mi South 18.4 mph 27.6 mph N/A   Clear
11:54 AM 71.1 °F - 46.9 °F 42% 29.41 in 10.0 mi South 27.6 mph 35.7 mph N/A   Clear
12:54 PM 73.9 °F - 45.0 °F 35% 29.41 in 10.0 mi SW 20.7 mph 31.1 mph N/A   Clear
1:54 PM 71.1 °F - 45.0 °F 39% 29.42 in 10.0 mi SW 12.7 mph 23.0 mph N/A   Clear
2:54 PM 72.0 °F - 44.1 °F 37% 29.43 in 10.0 mi West 13.8 mph - N/A   Clear
3:32 PM 63.0 °F - 34.0 °F 34% 29.48 in 10.0 mi NW 33.4 mph 43.7 mph N/A   Squalls
3:44 PM 61.0 °F - 34.0 °F 36% 29.49 in 10.0 mi NW 28.8 mph 42.6 mph N/A   Mostly Cloudy
3:54 PM 62.1 °F - 34.0 °F 35% 29.49 in 10.0 mi NW 29.9 mph 41.4 mph N/A   Mostly Cloudy
4:22 PM 63.0 °F - 35.1 °F 35% 29.52 in 10.0 mi NW 29.9 mph 38.0 mph N/A   Scattered Clouds
4:54 PM 60.1 °F - 36.0 °F 41% 29.55 in 10.0 mi NNW 31.1 mph 40.3 mph N/A   Scattered Clouds
5:54 PM 55.9 °F - 34.0 °F 44% 29.62 in 10.0 mi North 31.1 mph 42.6 mph N/A   Clear
6:54 PM 52.0 °F - 35.1 °F 53% 29.70 in 10.0 mi North 35.7 mph 46.0 mph N/A   Partly Cloudy
7:54 PM 46.9 °F - 35.1 °F 63% 29.79 in 10.0 mi North 28.8 mph 44.9 mph N/A   Overcast
8:19 PM 46.0 °F 35.6 °F 35.1 °F 66% 29.81 in 10.0 mi North 38.0 mph 51.8 mph N/A   Overcast
8:54 PM 46.0 °F 36.4 °F 34.0 °F 63% 29.86 in 10.0 mi North 32.2 mph 43.7 mph N/A   Overcast
9:09 PM 45.0 °F 34.4 °F 34.0 °F 65% 29.87 in 10.0 mi NNW 35.7 mph 46.0 mph N/A   Overcast
9:20 PM 43.0 °F 32.7 °F 34.0 °F 71% 29.88 in 10.0 mi North 28.8 mph 46.0 mph N/A   Overcast
9:54 PM 41.0 °F 28.6 °F 34.0 °F 76% 29.91 in 10.0 mi North 38.0 mph 50.6 mph N/A   Overcast
10:54 PM 39.9 °F 28.4 °F 33.1 °F 77% 30.01 in 10.0 mi North 29.9 mph 47.2 mph N/A   Overcast
11:54 PM 36.0 °F 22.8 °F 30.9 °F 82% 30.05 in 10.0 mi North 31.1 mph 41.4 mph N/A   Overcast